Weather History for Anaktuvuk Pass, AK

Change the Weather History Date:

Friday, May 16, 2014

  Actual Average Record
Temperature  
Mean Temperature 40 °F -  
Max Temperature 44 °F 36 °F 51 °F (2004)
Min Temperature 35 °F 19 °F 3 °F (2001)
Degree Days  
Heating Degree Days 26    
Moisture  
Dew Point 30 °F    
Average Humidity 68    
Maximum Humidity 81    
Minimum Humidity 49    
Precipitation  
Precipitation 0.00 in - - ()
Sea Level Pressure  
Sea Level Pressure 30.08 in    
Wind  
Wind Speed 9 mph (NE)    
Max Wind Speed 16 mph    
Max Gust Speed 21 mph    
Visibility 10 miles    
Events      
Averages and records for this station are not official NWS values.
T = Trace of Precipitation, MM = Missing Value Source: NWS Daily Summary

Daily Weather History Graph

Daily Weather History Graph

Search for Another Location

Airport:

Trip Planner

Search our weather history database for the weather conditions in past years. The results will help you decide how hot, cold, wet, or windy it might be!

Date:

Astronomy

May. 16, 2014 Rise Set
Actual Time 3:43 AM AKDT 12:28 AM AKDT
Civil Twilight Sun does not rise Sun does not rise
Nautical Twilight Sun does not rise Sun does not rise
Astronomical Twilight Sun does not rise Sun does not rise
Moon 1:31 AM AKDT (5/16) 5:44 AM AKDT (5/16)
Length of Visible Light 24h 00m
Length of Day
20h 45m
Waning Gibbous, 95% of the Moon is Illuminated
May 16
Waning Gibbous
May 21
Last Quarter
May 28
New
Jun 5
First Quarter
Jun 12
Full

Hourly Weather History & Observations

Time (AKDT) Temp. Windchill Dew Point Humidity Pressure Visibility Wind Dir Wind Speed Gust Speed Precip Events Conditions
12:16 AM 44.6 °F 40.7 °F 26.6 °F 49% 30.06 in 9.0 mi South 6.9 mph - N/A   Overcast
12:36 AM 44.6 °F 40.2 °F 26.6 °F 49% 30.06 in 10.0 mi SSW 8.1 mph - N/A   Overcast
12:56 AM 44.6 °F 41.4 °F 26.6 °F 49% 30.06 in 10.0 mi SSW 5.8 mph - N/A   Overcast
1:16 AM 44.6 °F 40.7 °F 26.6 °F 49% 30.06 in 10.0 mi South 6.9 mph - N/A   Overcast
1:36 AM 39.2 °F 30.5 °F 26.6 °F 61% 30.07 in 10.0 mi NE 16.1 mph - N/A   Overcast
1:56 AM 39.2 °F 31.6 °F 28.4 °F 65% 30.07 in 10.0 mi ENE 12.7 mph 19.6 mph N/A   Overcast
2:16 AM 37.4 °F 30.3 °F 28.4 °F 70% 30.07 in 10.0 mi NE 10.4 mph - N/A   Overcast
2:36 AM 37.4 °F 29.8 °F 28.4 °F 70% 30.07 in 10.0 mi NE 11.5 mph 18.4 mph N/A   Overcast
2:56 AM 37.4 °F 30.3 °F 28.4 °F 70% 30.08 in 10.0 mi ENE 10.4 mph - N/A   Overcast
3:16 AM 37.4 °F 31.4 °F 28.4 °F 70% 30.07 in 10.0 mi NE 8.1 mph - N/A   Mostly Cloudy
3:36 AM 37.4 °F 32.8 °F 30.2 °F 75% 30.07 in 10.0 mi NNE 5.8 mph - N/A   Overcast
3:56 AM 37.4 °F 34.9 °F 30.2 °F 75% 30.08 in 10.0 mi NNE 3.5 mph - N/A   Overcast
4:16 AM 35.6 °F 31.7 °F 28.4 °F 75% 30.08 in 10.0 mi North 4.6 mph - N/A   Overcast
4:36 AM 35.6 °F 29.9 °F 30.2 °F 81% 30.08 in 10.0 mi NE 6.9 mph - N/A   Overcast
4:56 AM 37.4 °F 30.3 °F 30.2 °F 75% 30.08 in 10.0 mi ENE 10.4 mph - N/A   Overcast
5:16 AM 37.4 °F 31.4 °F 30.2 °F 75% 30.09 in 10.0 mi ENE 8.1 mph - N/A   Overcast
5:36 AM 37.4 °F 32.8 °F 30.2 °F 75% 30.09 in 10.0 mi ENE 5.8 mph - N/A   Overcast
5:56 AM 37.4 °F 31.4 °F 30.2 °F 75% 30.09 in 10.0 mi ENE 8.1 mph - N/A   Overcast
6:16 AM 37.4 °F 30.3 °F 30.2 °F 75% 30.09 in 10.0 mi ENE 10.4 mph - N/A   Overcast
6:36 AM 37.4 °F 30.8 °F 30.2 °F 75% 30.09 in 10.0 mi ENE 9.2 mph - N/A   Overcast
6:56 AM 37.4 °F 31.4 °F 30.2 °F 75% 30.10 in 10.0 mi NE 8.1 mph - N/A   Overcast
7:16 AM 37.4 °F 32.8 °F 30.2 °F 75% 30.10 in 10.0 mi NE 5.8 mph - N/A   Overcast
7:36 AM 37.4 °F 32.1 °F 30.2 °F 75% 30.10 in 10.0 mi NE 6.9 mph - N/A   Overcast
7:56 AM 37.4 °F 31.4 °F 30.2 °F 75% 30.10 in 10.0 mi ENE 8.1 mph - N/A   Overcast
8:16 AM 37.4 °F 30.8 °F 30.2 °F 75% 30.10 in 10.0 mi NE 9.2 mph - N/A   Overcast
8:36 AM 37.4 °F 32.1 °F 30.2 °F 75% 30.10 in 10.0 mi NE 6.9 mph - N/A   Overcast
8:56 AM 37.4 °F 30.8 °F 32.0 °F 81% 30.10 in 10.0 mi NE 9.2 mph - N/A   Overcast
9:16 AM 39.2 °F 34.2 °F 32.0 °F 75% 30.09 in 10.0 mi ENE 6.9 mph - N/A   Mostly Cloudy
9:36 AM 39.2 °F 35.0 °F 32.0 °F 75% 30.09 in 10.0 mi ENE 5.8 mph - N/A   Clear
9:56 AM 41.0 °F 38.0 °F 32.0 °F 70% 30.09 in 10.0 mi NNE 4.6 mph - N/A   Clear
10:16 AM 42.8 °F 41.1 °F 32.0 °F 66% 30.09 in 10.0 mi NE 3.5 mph - N/A   Clear
10:36 AM 42.8 °F 39.3 °F 30.2 °F 61% 30.10 in 10.0 mi NNE 5.8 mph - N/A   Clear
10:56 AM 44.6 °F 39.2 °F 33.8 °F 66% 30.09 in 10.0 mi NNE 10.4 mph - N/A   Mostly Cloudy
11:16 AM 42.8 °F 37.0 °F 32.0 °F 66% 30.10 in 10.0 mi NNE 10.4 mph - N/A   Overcast
11:36 AM 42.8 °F 36.2 °F 32.0 °F 66% 30.10 in 10.0 mi NE 12.7 mph - N/A   Overcast
11:56 AM 41.0 °F 33.9 °F 32.0 °F 70% 30.10 in 10.0 mi NNE 12.7 mph 17.3 mph N/A   Overcast
12:16 PM 41.0 °F 33.9 °F 32.0 °F 70% 30.10 in 10.0 mi NE 12.7 mph - N/A   Overcast
12:36 PM 39.2 °F 30.5 °F 32.0 °F 75% 30.10 in 10.0 mi NE 16.1 mph - N/A   Overcast
12:56 PM 42.8 °F 35.8 °F 32.0 °F 66% 30.10 in 10.0 mi NE 13.8 mph 19.6 mph N/A   Overcast
1:16 PM 41.0 °F 33.5 °F 30.2 °F 65% 30.10 in 10.0 mi NE 13.8 mph - N/A   Overcast
1:36 PM 39.2 °F 30.8 °F 30.2 °F 70% 30.11 in 10.0 mi NE 15.0 mph 20.7 mph N/A   Overcast
1:56 PM 39.2 °F 30.8 °F 30.2 °F 70% 30.11 in 10.0 mi NE 15.0 mph 20.7 mph N/A   Overcast
2:16 PM 39.2 °F 30.8 °F 30.2 °F 70% 30.11 in 10.0 mi NE 15.0 mph - N/A   Overcast
2:36 PM 41.0 °F 33.1 °F 30.2 °F 65% 30.11 in 10.0 mi NE 15.0 mph 18.4 mph N/A   Overcast
2:56 PM 41.0 °F 33.5 °F 30.2 °F 65% 30.11 in 10.0 mi NE 13.8 mph - N/A   Overcast
3:16 PM 42.8 °F 35.8 °F 30.2 °F 61% 30.11 in 10.0 mi NE 13.8 mph - N/A   Mostly Cloudy
3:36 PM 42.8 °F 35.1 °F 30.2 °F 61% 30.11 in 10.0 mi NE 16.1 mph - N/A   Mostly Cloudy
3:56 PM 41.0 °F 33.1 °F 30.2 °F 65% 30.11 in 10.0 mi NE 15.0 mph 19.6 mph N/A   Overcast
4:16 PM 42.8 °F 36.6 °F 30.2 °F 61% 30.11 in 10.0 mi NE 11.5 mph - N/A   Mostly Cloudy
4:36 PM 42.8 °F 36.2 °F 30.2 °F 61% 30.11 in 10.0 mi NE 12.7 mph - N/A   Overcast
4:56 PM 42.8 °F 36.2 °F 30.2 °F 61% 30.11 in 10.0 mi NNE 12.7 mph - N/A   Overcast
5:16 PM 41.0 °F 33.9 °F 30.2 °F 65% 30.10 in 10.0 mi NNE 12.7 mph - N/A   Overcast
5:36 PM 41.0 °F 34.3 °F 30.2 °F 65% 30.10 in 10.0 mi NNE 11.5 mph - N/A   Overcast
5:56 PM 41.0 °F 34.3 °F 30.2 °F 65% 30.10 in 10.0 mi NE 11.5 mph - N/A   Overcast
6:16 PM 41.0 °F 33.9 °F 30.2 °F 65% 30.10 in 10.0 mi NE 12.7 mph - N/A   Overcast
6:36 PM 41.0 °F 34.3 °F 30.2 °F 65% 30.09 in 10.0 mi NNE 11.5 mph 16.1 mph N/A   Overcast
6:56 PM 41.0 °F 34.7 °F 30.2 °F 65% 30.09 in 10.0 mi NE 10.4 mph - N/A   Overcast
7:16 PM 41.0 °F 34.3 °F 30.2 °F 65% 30.08 in 10.0 mi NE 11.5 mph - N/A   Overcast
7:36 PM 41.0 °F 35.2 °F 30.2 °F 65% 30.08 in 10.0 mi NE 9.2 mph - N/A   Overcast
7:56 PM 42.8 °F 37.5 °F 30.2 °F 61% 30.08 in 10.0 mi NNE 9.2 mph - N/A   Overcast
8:16 PM 42.8 °F 38.0 °F 30.2 °F 61% 30.07 in 10.0 mi NNE 8.1 mph - N/A   Overcast
8:36 PM 42.8 °F 38.6 °F 30.2 °F 61% 30.07 in 10.0 mi NNE 6.9 mph - N/A   Mostly Cloudy
8:56 PM 41.0 °F 35.2 °F 30.2 °F 65% 30.06 in 10.0 mi NNE 9.2 mph - N/A   Partly Cloudy
9:16 PM 39.2 °F 31.6 °F 30.2 °F 70% 30.06 in 10.0 mi NE 12.7 mph - N/A   Clear
9:36 PM 39.2 °F 32.0 °F 30.2 °F 70% 30.05 in 10.0 mi NE 11.5 mph - N/A   Clear
9:56 PM 37.4 °F 31.4 °F 28.4 °F 70% 30.05 in 10.0 mi NNE 8.1 mph - N/A   Clear
10:16 PM 37.4 °F 30.8 °F 28.4 °F 70% 30.05 in 10.0 mi NE 9.2 mph - N/A   Clear
10:36 PM 35.6 °F 28.0 °F 28.4 °F 75% 30.04 in 10.0 mi ENE 10.4 mph - N/A   Partly Cloudy
10:56 PM 35.6 °F 28.6 °F 28.4 °F 75% 30.04 in 10.0 mi NE 9.2 mph - N/A   Mostly Cloudy
11:16 PM 35.6 °F 29.2 °F 28.4 °F 75% 30.04 in 10.0 mi ENE 8.1 mph - N/A   Mostly Cloudy
11:36 PM 35.6 °F 29.2 °F 28.4 °F 75% 30.04 in 10.0 mi NE 8.1 mph - N/A   Mostly Cloudy
11:56 PM 35.6 °F 29.9 °F 28.4 °F 75% 30.03 in 10.0 mi ENE 6.9 mph - N/A   Overcast